Home > Time Zones > World Clock > Weather > U.S.A. > Hilo > Past weeks

Flag for U.S.A. Weather past 2 weeks in Hilo, Hawaii, U.S.A.

Now
81 °F

Overcast.


Feels Like: 85 °F
Forecast: 73 / 85 °F
Wind: 7 mph from Southeast

Location: Hilo International Airport

Current Time: Jul 1, 2015 at 5:53:12 PM

Latest Report: Jul 1, 2015 at 4:53 PM


Visibility: 10 mi

Pressure: 29.86 "Hg

Humidity: 74%

Dew point: 72 °F

Location of HiloLocation

Historic Weather in Hilo — Graph

°F

Hilo temperature yesterday

Maximum temperature yesterday: 86 °F (at 12:53 PM)
Minimum temperature yesterday: 71 °F (at 3:53 AM)
Average temperature yesterday: 79 °F

Past Weeks' High & Low Weather Summary

 TemperatureHumidityPressure
High87 °F (Jul 1, 11:53 AM)100% (Jun 17, 5:02 AM)30.07 "Hg (Jun 17, 5:02 AM)
Low70 °F (Jun 17, 5:02 AM)56% (Jun 20, 7:53 PM)29.86 "Hg (Jul 1, 3:53 PM)
Average76 °F80%29.99 "Hg
* Reported Jun 16 3:53 PM — Jul 1 3:53 PM, Hilo, Weather by CustomWeather, © 2015

Note: Actual official high and low records may vary slightly from our data, if they occured in-between our weather recording intervals... More about our weather records

Advertising

Hilo weather history for previous 24 hours

 ConditionsComfort  
Time TempWeatherWind HumidityBarometerVisibility
3:53 PM
Wed, Jul 1
83 °FMore clouds than sun.8 mph70%29.86 "Hg10 mi
2:53 PM83 °FPartly sunny.10 mph68%29.88 "Hg10 mi
1:53 PM84 °FBroken clouds.12 mph67%29.88 "Hg10 mi
12:53 PM85 °FPartly sunny.10 mph63%29.89 "Hg10 mi
11:53 AM87 °FBroken clouds.9 mph61%29.90 "Hg10 mi
10:53 AM83 °FPartly sunny.7 mph68%29.92 "Hg10 mi
10:40 AM82 °FLight rain. Partly sunny.8 mph70%29.93 "Hg10 mi
9:53 AM82 °FPartly sunny.3 mph72%29.93 "Hg10 mi
8:53 AM81 °FPartly sunny.3 mph72%29.93 "Hg10 mi
7:53 AM79 °FBroken clouds.3 mph79%29.93 "Hg10 mi
6:53 AM77 °FBroken clouds.No wind85%29.92 "Hg10 mi
5:53 AM75 °FOvercast.3 mph90%29.90 "Hg10 mi
4:53 AM75 °FOvercast.No wind90%29.89 "Hg10 mi
3:53 AM75 °FOvercast.5 mph88%29.89 "Hg10 mi
2:53 AM74 °FOvercast.6 mph94%29.89 "Hg10 mi
2:32 AM75 °FOvercast.10 mph89%29.90 "Hg10 mi
1:53 AM74 °FLight rain. Overcast.6 mph94%29.91 "Hg7 mi
12:53 AM75 °FMostly cloudy.6 mph90%29.94 "Hg10 mi
12:16 AM75 °FOvercast.5 mph89%29.95 "Hg10 mi
11:53 PM
Tue, Jun 30
76 °FOvercast.5 mph88%29.96 "Hg10 mi
10:53 PM75 °FMostly cloudy.8 mph94%29.98 "Hg9 mi
10:11 PM75 °FMostly cloudy.8 mph94%29.98 "Hg8 mi
9:53 PM76 °FOvercast.6 mph91%29.97 "Hg10 mi
9:15 PM77 °FPassing clouds.3 mph89%29.97 "Hg10 mi
8:53 PM77 °FPassing clouds.3 mph88%29.96 "Hg10 mi
7:53 PM78 °FClear.No wind84%29.94 "Hg10 mi
5:53 PM81 °FScattered clouds.8 mph77%29.90 "Hg10 mi
5:20 PM82 °FPartly sunny.7 mph70%29.91 "Hg10 mi
Weather by CustomWeather, © 2015

See weather overviewHow to use our weather pages